Wetterdaten: Februar 2011
Datum Temp Feuchte Luftdruck Regen Wind Richtung Sonnenschein UV Solar Windben
01.02.2011 -4,4 C 91 % 1026,3 hPa 0,0 l/m 3,7 km/h S-SW 4,92 h 0,8 UV-I 164 W/m 8,4 km/h
02.02.2011 -0,7 C 96 % 1027,2 hPa 1,4 l/m 7,5 km/h S 0,17 h 0,6 UV-I 71 W/m 13,7 km/h
03.02.2011 1,9 C 96 % 1024,6 hPa 7,2 l/m 5,1 km/h S 0,00 h 0,0 UV-I 27 W/m 13,3 km/h
04.02.2011 6,2 C 89 % 1017,1 hPa 2,4 l/m 21,7 km/h S 0,00 h 0,0 UV-I 22 W/m 44,3 km/h
05.02.2011 8,4 C 87 % 1018,2 hPa 0,0 l/m 20,8 km/h W-SW 0,00 h 0,0 UV-I 19 W/m 39,0 km/h
06.02.2011 7,1 C 84 % 1021,4 hPa 0,2 l/m 15,2 km/h SW 0,00 h 0,5 UV-I 39 W/m 29,8 km/h
07.02.2011 8,3 C 66 % 1015,6 hPa 0,0 l/m 10,9 km/h S 6,00 h 0,9 UV-I 194 W/m 22,9 km/h
08.02.2011 1,9 C 85 % 1022,7 hPa 0,0 l/m 5,2 km/h W 1,83 h 0,7 UV-I 115 W/m 13,7 km/h
09.02.2011 1,6 C 81 % 1023,2 hPa 0,2 l/m 0,6 km/h S 6,17 h 0,9 UV-I 198 W/m 2,8 km/h
10.02.2011 4,6 C 88 % 1014,8 hPa 3,6 l/m 7,5 km/h S 1,75 h 0,8 UV-I 116 W/m 12,9 km/h
11.02.2011 5,3 C 98 % 1011,8 hPa 16,2 l/m 6,4 km/h N-NW 0,00 h 0,0 UV-I 22 W/m 14,0 km/h
12.02.2011 -0,3 C 96 % 1015,4 hPa 0,0 l/m 13,6 km/h S-SO 0,00 h 0,5 UV-I 39 W/m 25,0 km/h
13.02.2011 2,6 C 99 % 1011,0 hPa 10,0 l/m 3,3 km/h S 1,17 h 0,7 UV-I 86 W/m 6,4 km/h
14.02.2011 3,0 C 96 % 1007,2 hPa 0,2 l/m 16,7 km/h S-SO 0,00 h 0,7 UV-I 91 W/m 25,3 km/h
15.02.2011 2,6 C 97 % 1000,4 hPa 2,8 l/m 14,2 km/h S-SO 0,00 h 0,5 UV-I 45 W/m 22,5 km/h
16.02.2011 3,4 C 95 % 1001,4 hPa 0,0 l/m 8,7 km/h S-SO 1,42 h 0,8 UV-I 123 W/m 14,9 km/h
17.02.2011 -0,9 C 93 % 1007,6 hPa 0,0 l/m 2,8 km/h NO 0,00 h 0,5 UV-I 51 W/m 10,1 km/h
18.02.2011 -1,5 C 93 % 1016,5 hPa 0,0 l/m 1,1 km/h N-NO 0,00 h 0,5 UV-I 38 W/m 6,0 km/h
19.02.2011 -1,5 C 89 % 1019,0 hPa 0,0 l/m 4,1 km/h O-SO 0,00 h 0,8 UV-I 105 W/m 13,7 km/h
20.02.2011 -4,0 C 78 % 1020,1 hPa 0,0 l/m 10,3 km/h O-SO 4,83 h 1,1 UV-I 203 W/m 20,9 km/h
21.02.2011 -6,3 C 79 % 1020,1 hPa 0,0 l/m 5,6 km/h O-SO 7,00 h 1,0 UV-I 236 W/m 17,3 km/h
22.02.2011 -5,8 C 73 % 1022,3 hPa 0,0 l/m 2,0 km/h SO 6,67 h 1,0 UV-I 247 W/m 6,4 km/h
23.02.2011 -2,7 C 63 % 1025,4 hPa 0,0 l/m 13,0 km/h S-SO 4,17 h 0,9 UV-I 171 W/m 21,3 km/h
24.02.2011 0,6 C 80 % 1025,6 hPa 0,0 l/m 12,6 km/h S-SO 0,58 h 0,9 UV-I 122 W/m 19,7 km/h
25.02.2011 3,6 C 84 % 1028,0 hPa 0,0 l/m 8,4 km/h S-SO 3,92 h 1,1 UV-I 198 W/m 12,9 km/h
26.02.2011 3,8 C 63 % 1014,0 hPa 1,0 l/m 14,9 km/h S-SO 4,75 h 1,3 UV-I 213 W/m 23,7 km/h
27.02.2011 3,0 C 94 % 1012,4 hPa 5,8 l/m 7,7 km/h S-SW 0,00 h 0,7 UV-I 53 W/m 16,1 km/h
28.02.2011 1,9 C 92 % 1026,8 hPa 0,0 l/m 1,1 km/h S-SO 0,00 h 0,9 UV-I 101 W/m 4,8 km/h
Min-Datum 22.02.11 07.02.11 15.02.11 12 Tage 01.02.11 - - - - 01.02.11
Min-Zeit 07:35 15:50 17:10 - 01:20 - - - - 01:20
Minimum -10,1 C 50 % 999,3 hPa - 0,0 km/h - - - - 0,0 km/h
Max-Datum 07.02.11 13.02.11 28.02.11 11.02.11 05.02.11 - 21.02.11 26.02.11 25.02.11 04.02.11
Max-Zeit 15:50 10:40 23:45 00:40 02:00 - 16:25 11:50 12:30 18:05
Maximum 11,6 C 100 % 1030,4 hPa 16,2 l/m 27,4 km/h
W-SW
- 6,92 h 2,0 UV-I 605 W/m 59,5 km/h
S-SW
Durchschnitt 1,5 C 86 % 1017,7 hPa #51,0 l/m 8,7 km/h S-SO #55:20 h 0,8 UV-I 111 W/m 17,2 km/h

Durchschnitt Minimum Temp.-1,2 C
Durchschnitt Maximum Temp.4,2 C